Wind_Speed
14 14 14 14 14 14 14 14 13 13 13 13 12 12 11 11 11 11 10 10 8 8 9 10 10 10 9 8 7 7 7 7 7 7 7 6 6 5 4 4 3 2 2
14 15 15 15 15 15 15 15 15 15 14 14 14 14 13 13 13 12 11 11 10 10 11 11 12 11 10 9 9 8 8 8 8 8 8 7 6 6 6 5 4 3 3
15 15 15 15 15 15 16 16 16 16 16 15 15 15 15 14 14 13 13 13 13 13 13 13 13 12 12 11 11 10 9 8 9 9 9 8 7 7 7 6 6 5 5
16 16 16 16 16 16 16 17 17 17 17 17 16 16 16 16 16 15 14 14 15 15 15 14 14 14 13 13 13 12 11 10 10 10 9 9 8 8 8 8 7 7 6
17 18 17 17 17 17 17 17 17 18 18 18 18 18 17 17 17 16 16 16 16 17 17 16 16 16 15 15 15 14 13 12 12 11 10 10 9 9 10 9 9 8 7
19 19 19 19 19 18 18 18 18 18 19 19 19 19 18 18 18 18 17 17 17 18 18 18 18 18 17 17 17 16 15 14 14 13 12 12 11 11 11 11 10 10 9
21 20 20 21 20 20 20 20 20 19 20 20 20 20 20 19 19 19 19 19 19 19 18 18 19 19 19 19 18 17 17 16 15 15 14 13 13 13 13 12 12 12 11
22 22 22 22 22 22 21 21 21 21 21 21 21 21 21 20 20 19 19 20 20 19 18 17 19 20 21 20 20 19 19 19 18 16 16 15 14 14 15 14 14 13 13
23 23 23 23 23 24 24 23 22 23 22 22 22 22 22 22 21 21 21 21 21 21 20 20 20 21 22 22 21 21 20 20 19 18 18 17 17 16 16 16 15 15 15
25 25 25 25 25 25 25 25 24 24 24 23 23 23 23 23 23 23 23 23 23 22 22 22 23 23 23 23 23 23 22 22 21 20 20 20 19 18 18 17 17 16 16
27 27 26 26 26 27 27 27 26 25 25 25 25 25 25 25 25 25 25 25 24 24 24 24 25 25 25 24 25 25 25 24 23 23 22 21 21 20 19 18 18 17 17
28 28 28 28 28 28 28 28 28 27 27 27 27 27 27 27 27 27 27 26 25 25 25 26 26 27 26 26 26 26 27 27 25 25 24 23 23 22 21 20 19 19 19
29 29 30 30 29 29 30 30 30 30 29 28 28 29 28 28 28 29 28 27 27 26 26 27 28 28 28 28 28 28 28 27 26 25 25 25 24 24 23 22 22 21 20
30 30 30 31 31 31 31 32 32 32 31 30 30 30 30 30 30 30 29 29 28 29 28 29 30 30 31 30 30 29 29 29 28 27 27 27 26 26 24 23 23 23 22
31 31 31 32 31 32 32 32 33 33 33 32 32 31 31 31 31 30 30 30 30 30 30 30 31 32 32 32 32 31 30 30 30 29 28 29 28 28 26 25 24 24 24
32 32 33 33 32 32 32 32 33 34 34 34 33 33 33 32 33 32 32 32 32 32 31 32 32 33 33 34 33 33 32 32 32 32 31 31 30 30 29 28 27 26 26
33 33 34 34 34 33 33 33 33 34 34 34 35 35 35 35 35 35 34 33 33 33 33 33 33 34 34 34 34 34 34 34 34 34 33 33 33 32 31 30 30 29 29
34 34 35 35 35 35 35 35 34 34 34 35 36 37 37 37 37 37 36 35 34 34 34 34 33 34 35 35 36 36 35 34 34 35 35 35 35 34 34 33 33 32 31
35 35 35 35 36 36 36 36 35 35 36 36 37 38 38 38 38 38 37 37 36 36 35 35 34 34 35 36 36 36 36 36 36 36 37 37 37 36 36 36 35 34 33
36 35 35 35 36 36 37 37 36 36 36 37 38 38 38 39 39 39 39 37 37 37 37 37 35 34 35 37 37 37 38 38 38 38 38 39 38 38 38 38 37 37 36
36 36 35 36 36 37 37 37 37 37 37 37 38 39 38 39 39 39 39 38 38 38 37 37 37 37 36 37 38 38 39 39 39 40 40 40 40 40 39 39 39 38 38
37 36 37 37 37 38 39 39 38 38 39 39 39 40 40 39 39 39 39 39 39 39 38 37 37 37 37 38 38 38 39 39 40 40 40 41 41 41 40 40 40 40 39
37 37 38 38 38 39 40 40 40 41 41 41 40 40 40 41 41 41 40 40 40 40 39 39 38 38 39 39 39 39 39 40 40 40 41 41 41 41 41 41 41 41 40
38 39 39 39 40 41 41 42 43 43 44 43 43 43 42 41 42 42 41 41 41 41 41 41 40 39 39 40 41 40 40 40 41 41 41 42 42 42 42 42 42 41 42
40 40 40 40 41 43 43 43 43 43 44 44 43 43 43 43 43 42 42 41 42 42 42 42 42 41 41 41 41 41 41 41 42 43 43 43 43 44 44 44 43 42 43
40 40 41 41 42 42 43 44 44 44 45 45 45 44 44 44 44 43 42 42 42 42 43 43 43 43 42 42 42 42 42 42 42 43 43 44 44 44 45 45 45 45 45
Wind_Direction
242 243 243 243 243 245 248 250 250 251 252 253 255 256 256 255 256 262 267 269 266 261 252 245 241 238 235 228 222 214 214 212 209 208 209 212 211 203 200 205 208 212 206
243 243 243 243 244 245 248 251 253 254 253 253 254 257 257 258 257 260 263 263 259 253 246 241 240 238 236 230 226 221 222 221 217 214 214 217 218 217 217 218 216 219 222
246 245 243 244 245 244 245 248 252 252 253 255 256 257 259 259 259 260 261 261 257 253 247 243 241 238 237 235 231 227 226 227 224 223 221 222 226 228 224 223 222 226 231
246 247 246 246 245 245 246 249 251 252 253 255 256 256 258 259 261 261 259 259 257 255 251 245 243 239 238 237 236 234 233 233 229 229 229 227 228 229 228 227 228 230 235
248 248 249 248 246 247 249 251 252 253 254 255 255 256 258 259 261 262 260 258 256 256 253 248 244 239 237 237 238 239 238 238 237 236 234 234 233 232 231 231 232 235 234
248 249 249 249 248 248 250 251 252 254 255 255 255 256 258 259 260 261 262 260 258 257 255 248 244 240 238 239 240 241 242 242 241 240 239 239 239 238 236 233 234 237 238
249 249 250 250 250 250 250 251 253 254 255 256 256 256 258 260 261 261 261 260 260 259 253 248 242 239 239 240 241 242 244 243 243 240 240 243 242 241 241 239 238 240 243
250 249 249 250 251 251 251 252 252 252 253 254 255 256 257 259 262 261 262 261 260 259 253 249 242 240 242 241 243 243 245 246 246 245 242 244 243 242 243 244 243 243 245
251 250 250 250 251 252 252 252 253 252 252 253 255 256 257 259 260 260 260 261 260 258 251 247 246 244 246 246 246 245 246 246 247 248 245 244 245 245 246 245 246 246 246
251 251 252 251 251 252 252 252 253 253 253 254 254 255 256 258 260 260 259 260 261 259 254 250 249 249 248 248 248 248 247 248 247 247 246 245 246 247 248 247 247 247 249
252 252 252 252 252 252 252 252 252 254 254 255 254 254 256 258 260 259 259 259 260 260 258 254 252 252 251 250 250 249 249 249 248 248 247 247 247 247 246 246 246 248 251
252 252 252 253 253 253 253 253 253 255 256 256 256 255 257 258 259 259 259 259 259 259 259 257 255 254 253 252 252 251 251 250 249 248 249 249 249 248 248 248 247 248 251
253 252 252 251 252 252 253 253 253 254 255 257 257 256 257 258 259 258 258 258 258 258 259 258 256 255 254 254 252 251 252 250 248 248 250 251 249 248 249 250 249 249 250
253 253 252 252 253 253 253 253 253 253 254 257 257 257 257 258 259 258 258 258 258 258 258 259 258 256 255 254 253 251 252 251 250 250 251 251 250 249 249 249 250 250 251
254 254 253 253 254 254 253 254 254 254 254 255 257 257 258 258 258 258 258 258 259 259 260 259 259 258 257 255 253 252 253 253 251 252 251 252 251 250 250 250 250 250 253
254 254 255 255 255 254 254 255 254 254 255 256 257 257 258 259 259 259 259 259 259 259 260 260 259 259 257 255 253 252 252 252 253 252 252 252 251 251 250 251 252 253 254
255 255 255 255 255 255 255 255 256 256 256 257 258 259 259 259 260 261 260 260 259 259 260 261 261 259 257 255 254 253 252 252 253 252 252 252 252 251 251 253 253 254 256
256 255 255 255 254 255 255 255 256 257 257 258 258 259 260 260 260 261 260 260 260 261 261 262 262 260 257 257 256 254 252 251 251 251 252 252 252 251 252 253 254 255 256
257 256 255 255 254 254 255 255 256 256 257 258 258 259 260 261 261 261 260 261 261 261 262 262 262 260 258 257 256 254 252 251 251 252 252 252 252 252 252 253 253 254 256
257 256 255 255 256 255 254 255 256 256 257 259 259 260 259 260 261 261 260 259 260 261 262 262 262 261 259 258 257 255 253 253 251 252 253 253 252 252 253 253 253 254 255
257 257 256 256 257 256 254 254 255 255 257 259 260 260 260 260 260 260 260 259 260 260 262 262 261 261 260 258 257 255 254 253 253 253 253 253 253 253 253 254 253 253 255
257 256 256 256 257 257 255 254 255 255 256 258 260 260 260 260 260 260 260 259 259 260 260 260 261 261 261 259 258 256 254 253 254 254 254 254 254 253 254 254 254 254 255
256 256 256 256 257 257 256 256 256 256 256 257 259 260 259 259 260 260 260 260 261 261 260 260 260 260 260 259 259 257 255 254 253 253 253 254 254 253 254 255 255 255 255
257 256 257 257 257 257 257 257 257 256 256 256 258 257 258 258 259 259 260 261 261 262 262 262 261 260 260 260 259 258 256 255 253 253 253 253 254 254 254 255 256 256 256
258 257 258 258 258 258 258 258 257 257 257 257 258 258 258 258 258 259 259 260 260 261 262 262 261 261 260 261 260 258 258 257 255 253 253 252 253 253 253 254 255 256 257
258 257 258 258 258 258 258 258 258 258 259 258 258 258 258 258 258 258 258 259 260 260 261 261 262 262 261 260 259 258 258 258 256 255 254 253 253 253 253 254 255 256 258
Height
5843 5843 5844 5845 5845 5846 5847 5848 5849 5849 5850 5850 5851 5851 5851 5851 5851 5851 5851 5850 5849 5848 5848 5849 5851 5851 5852 5853 5853 5854 5855 5856 5856 5857 5857 5858 5858 5859 5859 5859 5860 5860 5860
5840 5841 5842 5842 5843 5844 5845 5846 5847 5847 5848 5848 5849 5849 5849 5849 5849 5849 5849 5848 5848 5848 5848 5849 5850 5850 5851 5852 5853 5853 5854 5855 5855 5856 5856 5857 5857 5858 5858 5859 5859 5859 5859
5838 5838 5839 5840 5840 5841 5842 5843 5844 5845 5845 5846 5846 5847 5847 5847 5847 5847 5847 5847 5847 5846 5846 5847 5848 5849 5850 5850 5851 5852 5852 5853 5854 5855 5855 5856 5856 5857 5857 5858 5858 5858 5858
5834 5835 5836 5837 5838 5838 5839 5840 5841 5842 5843 5843 5844 5844 5844 5844 5845 5845 5845 5844 5844 5844 5844 5845 5845 5846 5847 5849 5849 5850 5851 5852 5853 5853 5854 5855 5855 5856 5857 5857 5857 5857 5857
5831 5832 5833 5833 5834 5835 5836 5837 5838 5839 5839 5840 5841 5841 5841 5842 5842 5842 5842 5842 5841 5841 5841 5841 5843 5844 5845 5846 5847 5848 5849 5850 5851 5852 5853 5853 5854 5855 5855 5855 5856 5856 5856
5827 5828 5829 5830 5831 5832 5833 5834 5835 5836 5836 5837 5837 5838 5838 5839 5839 5839 5839 5839 5838 5837 5836 5836 5838 5840 5842 5843 5845 5846 5847 5848 5849 5850 5851 5852 5852 5853 5853 5854 5854 5854 5855
5823 5824 5825 5826 5827 5828 5829 5830 5831 5832 5832 5833 5834 5834 5835 5835 5835 5836 5835 5835 5835 5833 5832 5831 5833 5836 5838 5840 5842 5843 5845 5845 5846 5847 5848 5849 5850 5850 5851 5852 5852 5853 5853
5818 5820 5821 5822 5823 5824 5825 5826 5827 5828 5828 5829 5830 5830 5831 5831 5832 5832 5832 5832 5832 5831 5829 5829 5831 5833 5835 5837 5839 5840 5841 5843 5844 5844 5846 5846 5847 5847 5848 5849 5850 5850 5851
5813 5815 5816 5817 5818 5819 5821 5821 5822 5823 5824 5825 5826 5826 5827 5827 5828 5828 5828 5828 5828 5828 5827 5828 5829 5830 5832 5834 5835 5836 5838 5839 5840 5841 5842 5843 5844 5844 5845 5846 5847 5847 5848
5808 5809 5811 5812 5813 5814 5815 5817 5818 5818 5819 5820 5821 5822 5822 5823 5823 5824 5824 5824 5824 5825 5825 5825 5826 5827 5828 5830 5831 5832 5834 5835 5836 5838 5839 5840 5840 5841 5842 5843 5843 5844 5845
5802 5804 5805 5806 5807 5809 5810 5811 5813 5814 5814 5815 5815 5816 5817 5818 5818 5819 5819 5819 5820 5820 5821 5821 5822 5823 5824 5825 5826 5828 5829 5831 5832 5833 5834 5835 5836 5837 5838 5839 5840 5840 5841
5796 5798 5799 5800 5802 5803 5804 5806 5807 5808 5809 5809 5810 5811 5812 5812 5813 5813 5814 5814 5815 5815 5816 5816 5817 5818 5819 5820 5821 5823 5824 5826 5827 5828 5830 5831 5832 5833 5834 5835 5836 5836 5837
5790 5791 5792 5794 5795 5797 5798 5799 5801 5802 5803 5804 5804 5805 5805 5806 5807 5807 5808 5808 5809 5810 5810 5811 5811 5812 5813 5814 5816 5817 5819 5820 5822 5823 5825 5826 5827 5828 5829 5830 5831 5832 5833
5783 5784 5785 5786 5788 5789 5791 5792 5794 5795 5796 5797 5798 5798 5799 5800 5801 5801 5802 5802 5803 5804 5804 5805 5805 5806 5807 5808 5810 5811 5813 5815 5816 5818 5819 5820 5822 5823 5824 5825 5826 5827 5828
5776 5776 5778 5779 5780 5782 5783 5785 5787 5788 5789 5790 5791 5791 5792 5793 5794 5794 5795 5795 5796 5797 5798 5798 5798 5799 5800 5801 5803 5805 5807 5808 5810 5812 5813 5815 5816 5817 5818 5820 5821 5822 5823
5768 5769 5770 5771 5773 5774 5776 5778 5779 5780 5782 5783 5784 5784 5785 5786 5786 5787 5788 5788 5789 5790 5790 5790 5791 5792 5793 5794 5796 5797 5799 5801 5803 5805 5807 5808 5810 5811 5812 5814 5815 5816 5817
5760 5761 5762 5763 5765 5766 5768 5770 5771 5772 5774 5775 5776 5776 5777 5777 5778 5779 5780 5780 5781 5782 5782 5783 5783 5784 5785 5786 5788 5790 5792 5794 5795 5797 5799 5801 5803 5804 5806 5807 5809 5810 5811
5751 5752 5753 5754 5756 5758 5759 5761 5762 5764 5765 5766 5767 5768 5768 5769 5770 5771 5771 5772 5773 5773 5774 5774 5775 5776 5777 5778 5780 5782 5784 5785 5787 5789 5792 5793 5795 5797 5798 5800 5801 5803 5804
5742 5743 5744 5745 5747 5748 5750 5752 5753 5755 5756 5757 5758 5759 5759 5760 5761 5762 5763 5763 5764 5765 5766 5766 5767 5767 5768 5769 5771 5773 5775 5777 5779 5781 5783 5785 5787 5789 5790 5792 5794 5795 5796
5732 5733 5735 5736 5737 5739 5741 5742 5744 5746 5747 5748 5749 5750 5750 5751 5752 5753 5754 5754 5755 5756 5757 5758 5758 5759 5760 5761 5762 5764 5766 5768 5770 5772 5774 5776 5778 5780 5782 5784 5785 5787 5788
5723 5724 5725 5727 5728 5730 5731 5733 5735 5737 5738 5739 5740 5740 5740 5741 5742 5743 5744 5745 5746 5747 5748 5748 5749 5750 5751 5752 5753 5755 5757 5759 5761 5763 5765 5767 5769 5771 5773 5775 5776 5778 5779
5714 5715 5716 5717 5719 5720 5722 5724 5725 5727 5728 5730 5730 5731 5731 5732 5733 5734 5735 5736 5736 5737 5738 5739 5740 5740 5741 5742 5744 5746 5748 5750 5751 5753 5755 5757 5759 5761 5763 5765 5767 5769 5770
5704 5705 5706 5708 5709 5710 5711 5713 5715 5716 5717 5719 5720 5721 5722 5722 5723 5724 5725 5726 5727 5728 5729 5730 5731 5731 5732 5733 5734 5736 5738 5740 5741 5743 5745 5747 5749 5751 5753 5755 5757 5759 5760
5694 5695 5696 5697 5698 5699 5701 5702 5704 5705 5707 5708 5709 5710 5711 5712 5713 5713 5715 5716 5716 5717 5718 5719 5720 5721 5722 5723 5724 5726 5728 5729 5731 5733 5735 5736 5738 5740 5743 5744 5746 5748 5750
5684 5685 5686 5686 5687 5688 5690 5691 5692 5694 5695 5697 5698 5699 5700 5701 5702 5702 5703 5705 5706 5707 5708 5708 5710 5711 5712 5713 5714 5715 5717 5718 5720 5722 5724 5726 5728 5730 5732 5733 5735 5737 5739
5673 5674 5675 5675 5676 5677 5678 5679 5680 5682 5683 5684 5686 5688 5689 5689 5690 5691 5692 5693 5694 5696 5697 5698 5699 5700 5701 5702 5703 5704 5706 5707 5709 5711 5713 5715 5716 5718 5720 5722 5724 5726 5728